Regional Weather Roundup
Issued by NWS Kansas City/Pleasant Hill, MO

Home | Current Version | Previous Version | Graphics & Text | Print | Product List | Glossary Off
Versions: 1 2 3 4 5 6 7 8 9 10 11 12 13 14 15 16 17 18 19 20 21 22 23 24 25 26 27 28 29 30 31 32 33 34 35 36 37 38 39 40 41 42 43 44 45 46 47 48 49 50

000
ASUS43 KEAX 242111
RWREAX

WEATHER ROUNDUP FOR EASTERN KANSAS AND NORTHWEST MISSOURI
NATIONAL WEATHER SERVICE KANSAS CITY/PLEASANT HILL MO
400 PM CDT THU JUL 24 2014

KSZ040-057-103>105-MOZ028-029-037-043-242200-
...KANSAS CITY METROPOLITAN AREA...

CITY           SKY/WX    TMP DP  RH WIND       PRES   REMARKS
K.C. INTL      MOSUNNY   82  60  47 SE12      30.04F
K.C. DOWNTOWN  SUNNY     84  59  42 S12G20    30.03F
LEES SUMMIT    SUNNY     81  58  45 S9        30.06F
OLATHE - IXD   SUNNY     83  58  42 SE13G20   30.06F
OLATHE - OJC   SUNNY     82  57  42 SE14      30.05F
LAWRENCE       SUNNY     86  59  39 SE12      30.03F

$$

MOZ001>008-011>017-020>025-030>033-038>040-044>046-053-054-242200-
...NORTHERN AND CENTRAL MISSOURI...

CITY           SKY/WX    TMP DP  RH WIND       PRES   REMARKS
ST. JOSEPH     SUNNY     81  60  48 S16       30.03F
MOSBY          CLEAR     79  55  44 S10       30.05F
WARRENSBURG    SUNNY     81  57  44 SE10      30.04F
WHITEMAN AFB   SUNNY     82  45  27 SE8       30.05F
CLINTON        SUNNY     82  57  42 E6        30.07F
SEDALIA        SUNNY     82  57  42 SE6       30.08F
WARSAW         NOT AVBL
MARSHALL       SUNNY     82  61  47 SE5       30.07F
CHILLICOTHE      N/A     80  57  45 SE12      30.08F
MOBERLY        PTSUNNY   81  55  41 SE8       30.08F
KIRKSVILLE     PTSUNNY   78  57  48 SE9       30.09F

$$

MOZ041-047>049-056>058-063>065-088>090-097-242200-
...EASTERN AND SOUTHERN MISSOURI...

CITY           SKY/WX    TMP DP  RH WIND       PRES   REMARKS
ST. LOUIS INTL PTSUNNY   81  51  35 N9G16     30.09F
SPIRIT OF STL  MOSUNNY   80  51  36 NE8       30.07F
COLUMBIA       MOSUNNY   81  56  42 E9        30.09F
JEFFERSON CITY MOSUNNY   81  54  39 VRB3      30.07F
MEXICO         PTSUNNY   82  63  51 E5        30.08F
HANNIBAL       PTSUNNY   79  50  36 CALM      30.07F
ROLLA          MOSUNNY   81  50  33 N5        30.07F
OSAGE BEACH    MOSUNNY   82  54  36 CALM      30.08F
SPRINGFIELD    SUNNY     83  56  39 E12       30.09F
BRANSON        MOSUNNY   90  59  35 SE6       30.10F
NEVADA         SUNNY     84  61  45 SE6       30.06F
JOPLIN         SUNNY     87  62  43 VRB7      30.05F
WEST PLAINS    SUNNY     81  55  40 VRB3      30.10S
MALDEN         MOSUNNY   81  63  54 N10       30.06F

$$

IAZ060-094-KSZ022-034>040-054-083-096-NEZ052-066-093-242200-
...KANSAS...SOUTHEAST NEBRASKA AND IOWA...

CITY           SKY/WX    TMP DP  RH WIND       PRES   REMARKS
TOPEKA         SUNNY     88  60  38 SE16      30.02F
MANHATTAN      SUNNY     92  63  38 SE15G25   29.98F HX  93
EMPORIA        SUNNY     86  64  47 SE10      30.03F
CHANUTE        SUNNY     85  65  51 SE8       30.05F
WICHITA        MOSUNNY   89  69  51 SE16      30.01F HX  93
OMAHA          MOSUNNY   83  61  47 SE21      30.01S
LINCOLN        SUNNY     89  63  41 S16G28    29.97F HX  90
FALLS CITY     SUNNY     83  62  49 SE16G23   30.01F
LAMONI         MOSUNNY   77  58  51 SE10      30.08F
DES MOINES     CLOUDY    77  58  51 SW9       30.11R

$$




USA.gov is the U.S. government's official web portal to all federal, state and local government web resources and services.